Year,Month,Day,Hour,Minute,Value (Times are PST for windgust in km/hr)
2010,10,22,00,00,3.20
2010,10,22,00,01,1.60
2010,10,22,00,02,1.60
2010,10,22,00,06,3.20
2010,10,22,00,07,1.60
2010,10,22,00,08,1.60
2010,10,22,00,11,1.60
2010,10,22,00,19,1.60
2010,10,22,00,20,1.60
2010,10,22,00,21,3.20
2010,10,22,00,22,4.80
2010,10,22,00,23,4.80
2010,10,22,00,24,6.40
2010,10,22,00,25,3.20
2010,10,22,00,26,1.60
2010,10,22,00,27,1.60
2010,10,22,00,28,1.60
2010,10,22,00,29,1.60
2010,10,22,00,30,1.60
2010,10,22,00,31,1.60
2010,10,22,00,32,1.60
2010,10,22,00,36,3.20
2010,10,22,00,37,3.20
2010,10,22,00,38,1.60
2010,10,22,00,39,3.20
2010,10,22,00,40,1.60
2010,10,22,00,41,1.60
2010,10,22,00,43,1.60
2010,10,22,00,44,1.60
2010,10,22,00,45,1.60
2010,10,22,00,46,1.60
2010,10,22,00,47,1.60
2010,10,22,00,48,1.60
2010,10,22,00,49,3.20
2010,10,22,00,50,4.80
2010,10,22,00,51,4.80
2010,10,22,00,52,6.40
2010,10,22,00,53,6.40
2010,10,22,00,54,6.40
2010,10,22,00,55,3.20
2010,10,22,00,56,1.60
2010,10,22,00,57,1.60
2010,10,22,01,03,1.60
2010,10,22,01,04,1.60
2010,10,22,01,05,3.20
2010,10,22,01,06,3.20
2010,10,22,01,07,3.20
2010,10,22,01,08,3.20
2010,10,22,01,09,3.20
2010,10,22,01,10,3.20
2010,10,22,01,11,1.60
2010,10,22,01,12,1.60
2010,10,22,01,13,1.60
2010,10,22,01,14,1.60
2010,10,22,01,15,1.60
2010,10,22,01,16,3.20
2010,10,22,01,17,4.80
2010,10,22,01,18,4.80
2010,10,22,01,19,4.80
2010,10,22,01,20,3.20
2010,10,22,01,21,6.40
2010,10,22,01,22,6.40
2010,10,22,01,23,4.80
2010,10,22,01,24,3.20
2010,10,22,01,25,1.60
2010,10,22,01,26,3.20
2010,10,22,01,27,4.80
2010,10,22,01,28,4.80
2010,10,22,01,29,1.60
2010,10,22,01,30,1.60
2010,10,22,01,31,1.60
2010,10,22,01,32,1.60
2010,10,22,01,35,1.60
2010,10,22,01,36,1.60
2010,10,22,01,42,1.60
2010,10,22,01,43,3.20
2010,10,22,01,44,1.60
2010,10,22,01,45,1.60
2010,10,22,01,46,1.60
2010,10,22,01,47,1.60
2010,10,22,01,48,1.60
2010,10,22,01,49,1.60
2010,10,22,01,51,1.60
2010,10,22,01,52,1.60
2010,10,22,01,53,3.20
2010,10,22,01,54,3.20
2010,10,22,01,55,3.20
2010,10,22,01,56,3.20
2010,10,22,01,57,4.80
2010,10,22,01,58,4.80
2010,10,22,01,59,8.10
2010,10,22,02,00,6.40
2010,10,22,02,01,4.80
2010,10,22,02,02,3.20
2010,10,22,02,03,3.20
2010,10,22,02,04,3.20
2010,10,22,02,05,4.80
2010,10,22,02,06,4.80
2010,10,22,02,07,3.20
2010,10,22,02,08,3.20
2010,10,22,02,09,3.20
2010,10,22,02,10,1.60
2010,10,22,02,11,1.60
2010,10,22,02,12,6.40
2010,10,22,02,13,4.80
2010,10,22,02,14,4.80
2010,10,22,02,15,3.20
2010,10,22,02,16,3.20
2010,10,22,02,17,3.20
2010,10,22,02,19,1.60
2010,10,22,02,20,1.60
2010,10,22,02,21,1.60
2010,10,22,02,22,1.60
2010,10,22,02,23,1.60
2010,10,22,02,24,1.60
2010,10,22,02,25,1.60
2010,10,22,02,30,1.60
2010,10,22,02,31,1.60
2010,10,22,02,32,1.60
2010,10,22,02,33,1.60
2010,10,22,02,34,1.60
2010,10,22,02,35,1.60
2010,10,22,02,36,3.20
2010,10,22,02,37,3.20
2010,10,22,02,38,1.60
2010,10,22,02,39,1.60
2010,10,22,02,40,1.60
2010,10,22,02,41,1.60
2010,10,22,02,42,1.60
2010,10,22,02,43,1.60
2010,10,22,02,44,3.20
2010,10,22,02,45,3.20
2010,10,22,02,46,3.20
2010,10,22,02,47,1.60
2010,10,22,02,52,3.20
2010,10,22,02,55,1.60
2010,10,22,02,56,1.60
2010,10,22,03,03,1.60
2010,10,22,03,20,1.60
2010,10,22,03,21,3.20
2010,10,22,03,22,1.60
2010,10,22,03,23,1.60
2010,10,22,03,26,1.60
2010,10,22,03,44,1.60
2010,10,22,03,46,1.60
2010,10,22,03,51,1.60
2010,10,22,04,11,1.60
2010,10,22,04,15,3.20
2010,10,22,04,16,3.20
2010,10,22,04,17,1.60
2010,10,22,04,24,1.60
2010,10,22,04,25,1.60
2010,10,22,04,26,1.60
2010,10,22,04,27,1.60
2010,10,22,04,28,1.60
2010,10,22,04,34,3.20
2010,10,22,04,35,1.60
2010,10,22,04,36,1.60
2010,10,22,04,58,1.60
2010,10,22,05,00,1.60
2010,10,22,05,01,1.60
2010,10,22,05,22,1.60
2010,10,22,05,28,1.60
2010,10,22,05,29,1.60
2010,10,22,05,30,1.60
2010,10,22,05,36,1.60
2010,10,22,05,37,1.60
2010,10,22,05,38,1.60
2010,10,22,06,03,1.60
2010,10,22,06,04,1.60
2010,10,22,06,05,1.60
2010,10,22,06,06,3.20
2010,10,22,06,07,1.60
2010,10,22,06,12,1.60
2010,10,22,06,13,1.60
2010,10,22,06,14,1.60
2010,10,22,06,21,1.60
2010,10,22,06,22,1.60
2010,10,22,06,23,1.60
2010,10,22,06,24,1.60
2010,10,22,06,26,1.60
2010,10,22,06,32,1.60
2010,10,22,06,33,3.20
2010,10,22,06,34,1.60
2010,10,22,06,35,1.60
2010,10,22,06,40,1.60
2010,10,22,06,41,1.60
2010,10,22,06,42,1.60
2010,10,22,06,43,1.60
2010,10,22,06,44,1.60
2010,10,22,06,45,1.60
2010,10,22,06,49,1.60
2010,10,22,06,50,1.60
2010,10,22,06,51,1.60
2010,10,22,06,52,1.60
2010,10,22,06,57,1.60
2010,10,22,07,28,1.60
2010,10,22,07,29,1.60
2010,10,22,07,49,1.60
2010,10,22,07,50,1.60
2010,10,22,07,57,1.60
2010,10,22,07,58,1.60
2010,10,22,08,10,1.60
2010,10,22,08,11,1.60
2010,10,22,08,12,1.60
2010,10,22,08,20,1.60
2010,10,22,08,56,1.60
2010,10,22,08,57,1.60
2010,10,22,08,58,1.60
2010,10,22,08,59,1.60
2010,10,22,09,00,1.60
2010,10,22,09,01,1.60
2010,10,22,09,36,1.60
2010,10,22,09,40,1.60
2010,10,22,09,41,1.60
2010,10,22,09,42,1.60
2010,10,22,09,43,1.60
2010,10,22,09,45,1.60
2010,10,22,09,47,1.60
2010,10,22,09,48,1.60
2010,10,22,09,49,1.60
2010,10,22,09,50,1.60
2010,10,22,09,51,1.60
2010,10,22,09,52,1.60
2010,10,22,09,54,1.60
2010,10,22,09,55,1.60
2010,10,22,09,56,1.60
2010,10,22,09,57,4.80
2010,10,22,09,58,4.80
2010,10,22,09,59,4.80
2010,10,22,10,00,4.80
2010,10,22,10,01,4.80
2010,10,22,10,02,4.80
2010,10,22,10,03,4.80
2010,10,22,10,04,4.80
2010,10,22,10,05,4.80
2010,10,22,10,06,3.20
2010,10,22,10,07,3.20
2010,10,22,10,08,1.60
2010,10,22,10,09,3.20
2010,10,22,10,10,3.20
2010,10,22,10,11,1.60
2010,10,22,10,12,1.60
2010,10,22,10,13,4.80
2010,10,22,10,14,3.20
2010,10,22,10,15,4.80
2010,10,22,10,16,3.20
2010,10,22,10,17,1.60
2010,10,22,10,18,4.80
2010,10,22,10,19,3.20
2010,10,22,10,20,1.60
2010,10,22,10,22,1.60
2010,10,22,10,23,1.60
2010,10,22,10,28,3.20
2010,10,22,10,29,3.20
2010,10,22,10,31,4.80
2010,10,22,10,32,4.80
2010,10,22,10,33,1.60
2010,10,22,10,34,6.40
2010,10,22,10,35,3.20
2010,10,22,10,36,3.20
2010,10,22,10,37,4.80
2010,10,22,10,38,1.60
2010,10,22,10,39,1.60
2010,10,22,10,40,1.60
2010,10,22,10,50,1.60
2010,10,22,10,53,1.60
2010,10,22,10,55,3.20
2010,10,22,10,56,3.20
2010,10,22,10,57,4.80
2010,10,22,10,58,3.20
2010,10,22,10,59,1.60
2010,10,22,11,00,1.60
2010,10,22,11,01,1.60
2010,10,22,11,02,3.20
2010,10,22,11,03,1.60
2010,10,22,11,05,1.60
2010,10,22,11,06,3.20
2010,10,22,11,07,1.60
2010,10,22,11,08,6.40
2010,10,22,11,09,4.80
2010,10,22,11,10,4.80
2010,10,22,11,11,4.80
2010,10,22,11,12,4.80
2010,10,22,11,13,3.20
2010,10,22,11,14,4.80
2010,10,22,11,15,3.20
2010,10,22,11,16,1.60
2010,10,22,11,17,3.20
2010,10,22,11,18,3.20
2010,10,22,11,19,3.20
2010,10,22,11,20,3.20
2010,10,22,11,21,3.20
2010,10,22,11,22,4.80
2010,10,22,11,23,1.60
2010,10,22,11,24,1.60
2010,10,22,11,25,1.60
2010,10,22,11,26,1.60
2010,10,22,11,27,1.60
2010,10,22,11,30,3.20
2010,10,22,11,31,1.60
2010,10,22,11,34,1.60
2010,10,22,11,35,1.60
2010,10,22,11,37,3.20
2010,10,22,11,38,3.20
2010,10,22,11,39,1.60
2010,10,22,11,40,3.20
2010,10,22,11,41,4.80
2010,10,22,11,42,3.20
2010,10,22,11,43,1.60
2010,10,22,11,44,8.10
2010,10,22,11,45,3.20
2010,10,22,11,46,3.20
2010,10,22,11,47,6.40
2010,10,22,11,48,6.40
2010,10,22,11,49,3.20
2010,10,22,11,50,3.20
2010,10,22,11,51,3.20
2010,10,22,11,52,4.80
2010,10,22,11,53,8.10
2010,10,22,11,54,6.40
2010,10,22,11,55,6.40
2010,10,22,11,56,8.10
2010,10,22,11,57,6.40
2010,10,22,11,58,6.40
2010,10,22,11,59,8.10
2010,10,22,12,00,6.40
2010,10,22,12,01,6.40
2010,10,22,12,02,3.20
2010,10,22,12,03,1.60
2010,10,22,12,04,3.20
2010,10,22,12,05,6.40
2010,10,22,12,06,8.10
2010,10,22,12,07,8.10
2010,10,22,12,08,4.80
2010,10,22,12,09,6.40
2010,10,22,12,10,4.80
2010,10,22,12,11,4.80
2010,10,22,12,12,3.20
2010,10,22,12,13,1.60
2010,10,22,12,14,8.10
2010,10,22,12,15,8.10
2010,10,22,12,16,8.10
2010,10,22,12,17,6.40
2010,10,22,12,18,8.10
2010,10,22,12,19,3.20
2010,10,22,12,20,3.20
2010,10,22,12,21,3.20
2010,10,22,12,22,4.80
2010,10,22,12,23,9.60
2010,10,22,12,24,8.10
2010,10,22,12,25,8.10
2010,10,22,12,26,6.40
2010,10,22,12,27,4.80
2010,10,22,12,28,9.60
2010,10,22,12,29,4.80
2010,10,22,12,30,8.10
2010,10,22,12,31,6.40
2010,10,22,12,32,9.60
2010,10,22,12,33,8.10
2010,10,22,12,34,9.60
2010,10,22,12,35,9.60
2010,10,22,12,36,8.10
2010,10,22,12,37,6.40
2010,10,22,12,38,6.40
2010,10,22,12,39,9.60
2010,10,22,12,40,9.60
2010,10,22,12,41,9.60
2010,10,22,12,42,9.60
2010,10,22,12,43,8.10
2010,10,22,12,44,8.10
2010,10,22,12,45,6.40
2010,10,22,12,46,8.10
2010,10,22,12,47,8.10
2010,10,22,12,48,8.10
2010,10,22,12,49,6.40
2010,10,22,12,50,6.40
2010,10,22,12,51,8.10
2010,10,22,12,52,6.40
2010,10,22,12,53,9.60
2010,10,22,12,54,6.40
2010,10,22,12,55,6.40
2010,10,22,12,56,8.10
2010,10,22,12,57,6.40
2010,10,22,12,58,8.10
2010,10,22,12,59,8.10
2010,10,22,13,00,4.80
2010,10,22,13,01,8.10
2010,10,22,13,02,8.10
2010,10,22,13,03,8.10
2010,10,22,13,04,8.10
2010,10,22,13,05,8.10
2010,10,22,13,06,6.40
2010,10,22,13,07,4.80
2010,10,22,13,08,8.10
2010,10,22,13,09,6.40
2010,10,22,13,10,8.10
2010,10,22,13,11,4.80
2010,10,22,13,12,6.40
2010,10,22,13,13,11.30
2010,10,22,13,14,8.10
2010,10,22,13,15,6.40
2010,10,22,13,16,11.30
2010,10,22,13,17,8.10
2010,10,22,13,18,4.80
2010,10,22,13,19,6.40
2010,10,22,13,20,3.20
2010,10,22,13,21,8.10
2010,10,22,13,22,9.60
2010,10,22,13,23,8.10
2010,10,22,13,24,11.30
2010,10,22,13,25,14.50
2010,10,22,13,26,14.50
2010,10,22,13,27,9.60
2010,10,22,13,28,9.60
2010,10,22,13,29,8.10
2010,10,22,13,30,8.10
2010,10,22,13,31,6.40
2010,10,22,13,32,4.80
2010,10,22,13,33,4.80
2010,10,22,13,34,6.40
2010,10,22,13,35,6.40
2010,10,22,13,36,8.10
2010,10,22,13,37,4.80
2010,10,22,13,38,4.80
2010,10,22,13,39,6.40
2010,10,22,13,40,4.80
2010,10,22,13,41,4.80
2010,10,22,13,42,1.60
2010,10,22,13,43,3.20
2010,10,22,13,44,3.20
2010,10,22,13,45,4.80
2010,10,22,13,46,1.60
2010,10,22,13,47,1.60
2010,10,22,13,48,6.40
2010,10,22,13,49,4.80
2010,10,22,13,50,4.80
2010,10,22,13,51,4.80
2010,10,22,13,52,6.40
2010,10,22,13,53,6.40
2010,10,22,13,54,6.40
2010,10,22,13,55,3.20
2010,10,22,13,56,3.20
2010,10,22,13,57,3.20
2010,10,22,13,58,1.60
2010,10,22,13,59,3.20
2010,10,22,14,00,3.20
2010,10,22,14,01,8.10
2010,10,22,14,02,4.80
2010,10,22,14,03,8.10
2010,10,22,14,04,6.40
2010,10,22,14,05,6.40
2010,10,22,14,06,8.10
2010,10,22,14,07,6.40
2010,10,22,14,08,6.40
2010,10,22,14,09,4.80
2010,10,22,14,10,3.20
2010,10,22,14,11,3.20
2010,10,22,14,12,6.40
2010,10,22,14,13,6.40
2010,10,22,14,14,4.80
2010,10,22,14,15,8.10
2010,10,22,14,16,4.80
2010,10,22,14,17,3.20
2010,10,22,14,18,6.40
2010,10,22,14,19,6.40
2010,10,22,14,20,6.40
2010,10,22,14,21,4.80
2010,10,22,14,22,4.80
2010,10,22,14,23,3.20
2010,10,22,14,24,3.20
2010,10,22,14,25,4.80
2010,10,22,14,26,8.10
2010,10,22,14,27,4.80
2010,10,22,14,28,8.10
2010,10,22,14,29,6.40
2010,10,22,14,30,6.40
2010,10,22,14,31,4.80
2010,10,22,14,32,4.80
2010,10,22,14,33,4.80
2010,10,22,14,34,4.80
2010,10,22,14,35,4.80
2010,10,22,14,36,6.40
2010,10,22,14,37,4.80
2010,10,22,14,38,4.80
2010,10,22,14,39,4.80
2010,10,22,14,40,4.80
2010,10,22,14,41,6.40
2010,10,22,14,42,8.10
2010,10,22,14,43,6.40
2010,10,22,14,44,4.80
2010,10,22,14,45,6.40
2010,10,22,14,46,6.40
2010,10,22,14,47,6.40
2010,10,22,14,48,3.20
2010,10,22,14,49,1.60
2010,10,22,14,50,4.80
2010,10,22,14,51,3.20
2010,10,22,14,52,3.20
2010,10,22,14,53,4.80
2010,10,22,14,54,4.80
2010,10,22,14,55,4.80
2010,10,22,14,56,4.80
2010,10,22,14,57,4.80
2010,10,22,14,58,4.80
2010,10,22,14,59,4.80
2010,10,22,15,00,4.80
2010,10,22,15,01,4.80
2010,10,22,15,02,6.40
2010,10,22,15,03,6.40
2010,10,22,15,04,3.20
2010,10,22,15,05,4.80
2010,10,22,15,06,1.60
2010,10,22,15,07,4.80
2010,10,22,15,08,4.80
2010,10,22,15,09,4.80
2010,10,22,15,10,6.40
2010,10,22,15,11,4.80
2010,10,22,15,12,6.40
2010,10,22,15,13,8.10
2010,10,22,15,14,6.40
2010,10,22,15,15,3.20
2010,10,22,15,16,4.80
2010,10,22,15,17,6.40
2010,10,22,15,18,8.10
2010,10,22,15,19,8.10
2010,10,22,15,20,6.40
2010,10,22,15,21,6.40
2010,10,22,15,22,8.10
2010,10,22,15,23,8.10
2010,10,22,15,24,6.40
2010,10,22,15,25,8.10
2010,10,22,15,26,8.10
2010,10,22,15,27,6.40
2010,10,22,15,28,1.60
2010,10,22,15,29,6.40
2010,10,22,15,30,6.40
2010,10,22,15,31,6.40
2010,10,22,15,32,6.40
2010,10,22,15,33,6.40
2010,10,22,15,34,4.80
2010,10,22,15,35,6.40
2010,10,22,15,36,4.80
2010,10,22,15,37,6.40
2010,10,22,15,38,3.20
2010,10,22,15,39,9.60
2010,10,22,15,40,11.30
2010,10,22,15,41,6.40
2010,10,22,15,42,9.60
2010,10,22,15,43,8.10
2010,10,22,15,44,9.60
2010,10,22,15,45,8.10
2010,10,22,15,46,3.20
2010,10,22,15,47,6.40
2010,10,22,15,48,8.10
2010,10,22,15,49,8.10
2010,10,22,15,50,6.40
2010,10,22,15,51,3.20
2010,10,22,15,52,3.20
2010,10,22,15,53,4.80
2010,10,22,15,54,3.20
2010,10,22,15,55,1.60
2010,10,22,15,56,1.60
2010,10,22,15,57,3.20
2010,10,22,15,58,3.20
2010,10,22,15,59,4.80
2010,10,22,16,00,4.80
2010,10,22,16,01,4.80
2010,10,22,16,02,3.20
2010,10,22,16,03,3.20
2010,10,22,16,04,1.60
2010,10,22,16,05,1.60
2010,10,22,16,06,3.20
2010,10,22,16,07,3.20
2010,10,22,16,08,3.20
2010,10,22,16,09,1.60
2010,10,22,16,10,1.60
2010,10,22,16,12,1.60
2010,10,22,16,13,1.60
2010,10,22,16,14,1.60
2010,10,22,16,15,1.60
2010,10,22,16,46,1.60
2010,10,22,16,48,1.60
2010,10,22,16,49,1.60
2010,10,22,16,50,1.60
2010,10,22,16,52,3.20
2010,10,22,16,53,1.60
2010,10,22,16,54,1.60
2010,10,22,16,57,1.60
2010,10,22,16,58,1.60
2010,10,22,17,19,1.60
2010,10,22,17,21,3.20
2010,10,22,17,22,3.20
2010,10,22,17,23,1.60
2010,10,22,17,24,3.20
2010,10,22,17,25,4.80
2010,10,22,17,26,4.80
2010,10,22,17,27,3.20
2010,10,22,17,28,4.80
2010,10,22,17,29,3.20
2010,10,22,17,30,4.80
2010,10,22,17,32,1.60
2010,10,22,17,33,4.80
2010,10,22,17,34,6.40
2010,10,22,17,35,4.80
2010,10,22,17,36,6.40
2010,10,22,17,37,1.60
2010,10,22,17,40,3.20
2010,10,22,17,41,3.20
2010,10,22,17,43,3.20
2010,10,22,17,44,1.60
2010,10,22,17,45,1.60
2010,10,22,17,46,1.60
2010,10,22,17,47,3.20
2010,10,22,17,48,3.20
2010,10,22,17,49,3.20
2010,10,22,17,50,1.60
2010,10,22,17,51,1.60
2010,10,22,19,47,1.60
2010,10,22,19,48,1.60
2010,10,22,19,49,1.60
2010,10,22,19,50,1.60
2010,10,22,19,51,1.60
2010,10,22,19,52,1.60
2010,10,22,19,53,1.60
2010,10,22,19,54,1.60
2010,10,22,19,55,1.60
2010,10,22,19,56,1.60
2010,10,22,19,57,1.60
2010,10,22,19,58,1.60
2010,10,22,19,59,3.20
2010,10,22,20,00,3.20
2010,10,22,20,01,4.80
2010,10,22,20,02,4.80
2010,10,22,20,03,6.40
2010,10,22,20,04,4.80
2010,10,22,20,05,6.40
2010,10,22,20,06,6.40
2010,10,22,20,07,4.80
2010,10,22,20,08,3.20
2010,10,22,20,09,3.20
2010,10,22,20,10,1.60
2010,10,22,20,13,1.60
2010,10,22,20,14,4.80
2010,10,22,20,15,1.60
2010,10,22,20,16,6.40
2010,10,22,20,17,3.20
2010,10,22,20,18,4.80
2010,10,22,20,19,6.40
2010,10,22,20,20,6.40
2010,10,22,20,21,6.40
2010,10,22,20,22,6.40
2010,10,22,20,23,6.40
2010,10,22,20,24,6.40
2010,10,22,20,25,4.80
2010,10,22,20,26,6.40
2010,10,22,20,27,3.20
2010,10,22,20,28,3.20
2010,10,22,20,29,4.80
2010,10,22,20,30,6.40
2010,10,22,20,31,4.80
2010,10,22,20,32,3.20
2010,10,22,20,33,3.20
2010,10,22,20,34,3.20
2010,10,22,20,35,1.60
2010,10,22,20,36,1.60
2010,10,22,20,37,1.60
2010,10,22,20,38,1.60
2010,10,22,20,39,1.60
2010,10,22,20,40,1.60
2010,10,22,20,41,3.20
2010,10,22,20,42,3.20
2010,10,22,20,43,3.20
2010,10,22,20,44,4.80
2010,10,22,20,45,4.80
2010,10,22,20,46,3.20
2010,10,22,20,47,4.80
2010,10,22,20,48,6.40
2010,10,22,20,49,4.80
2010,10,22,20,50,6.40
2010,10,22,20,51,4.80
2010,10,22,20,52,6.40
2010,10,22,20,53,6.40
2010,10,22,20,54,6.40
2010,10,22,20,55,6.40
2010,10,22,20,56,4.80
2010,10,22,20,57,4.80
2010,10,22,20,58,3.20
2010,10,22,20,59,3.20
2010,10,22,21,00,3.20
2010,10,22,21,01,3.20
2010,10,22,21,02,1.60
2010,10,22,21,03,4.80
2010,10,22,21,04,3.20
2010,10,22,21,05,3.20
2010,10,22,21,06,3.20
2010,10,22,21,07,3.20
2010,10,22,21,08,3.20
2010,10,22,21,09,3.20
2010,10,22,21,10,3.20
2010,10,22,21,11,4.80
2010,10,22,21,12,3.20
2010,10,22,21,13,1.60
2010,10,22,21,14,1.60
2010,10,22,21,15,1.60
2010,10,22,21,16,3.20
2010,10,22,21,17,3.20
2010,10,22,21,18,1.60
2010,10,22,21,19,1.60
2010,10,22,21,20,1.60
2010,10,22,21,22,3.20
2010,10,22,21,23,3.20
2010,10,22,21,24,3.20
2010,10,22,21,25,1.60
2010,10,22,21,26,1.60
2010,10,22,21,27,1.60
2010,10,22,21,28,1.60
2010,10,22,21,29,1.60
2010,10,22,21,31,1.60
2010,10,22,21,32,1.60
2010,10,22,21,33,1.60
2010,10,22,21,50,1.60
2010,10,22,21,58,1.60
2010,10,22,21,59,1.60
2010,10,22,22,00,1.60
2010,10,22,22,02,1.60
2010,10,22,22,03,1.60
2010,10,22,22,11,3.20
2010,10,22,22,12,4.80
2010,10,22,22,13,4.80
2010,10,22,22,14,3.20
2010,10,22,22,15,3.20
2010,10,22,22,16,1.60
2010,10,22,22,17,1.60
2010,10,22,22,18,1.60
2010,10,22,22,19,1.60
2010,10,22,22,20,3.20
2010,10,22,22,21,1.60
2010,10,22,22,22,3.20
2010,10,22,22,23,3.20
2010,10,22,22,24,3.20
2010,10,22,22,25,3.20
2010,10,22,22,26,1.60
2010,10,22,22,27,4.80
2010,10,22,22,28,4.80
2010,10,22,22,29,4.80
2010,10,22,22,30,4.80
2010,10,22,22,31,3.20
2010,10,22,22,32,3.20
2010,10,22,22,33,3.20
2010,10,22,22,34,3.20
2010,10,22,22,35,3.20
2010,10,22,22,36,1.60
2010,10,22,22,40,1.60
2010,10,22,22,41,1.60
2010,10,22,22,43,1.60
2010,10,22,22,44,1.60
2010,10,22,23,00,1.60
2010,10,22,23,01,1.60
2010,10,22,23,02,1.60
2010,10,22,23,03,3.20
2010,10,22,23,04,3.20
2010,10,22,23,05,3.20
2010,10,22,23,06,4.80
2010,10,22,23,07,4.80
2010,10,22,23,08,4.80
2010,10,22,23,09,3.20
2010,10,22,23,10,4.80
2010,10,22,23,11,4.80
2010,10,22,23,12,4.80
2010,10,22,23,13,4.80
2010,10,22,23,14,8.10
2010,10,22,23,15,6.40
2010,10,22,23,16,4.80
2010,10,22,23,17,4.80
2010,10,22,23,18,1.60
2010,10,22,23,19,3.20
2010,10,22,23,20,1.60
2010,10,22,23,21,1.60
2010,10,22,23,22,1.60
2010,10,22,23,23,1.60
2010,10,22,23,24,1.60
2010,10,22,23,25,1.60
2010,10,22,23,37,1.60
2010,10,22,23,43,1.60
2010,10,22,23,44,1.60
2010,10,22,23,45,1.60
2010,10,22,23,46,3.20
2010,10,22,23,47,4.80
2010,10,22,23,48,6.40
2010,10,22,23,49,6.40
2010,10,22,23,50,6.40
2010,10,22,23,51,8.10
2010,10,22,23,52,6.40
2010,10,22,23,53,6.40
2010,10,22,23,54,6.40
2010,10,22,23,55,6.40
2010,10,22,23,56,6.40
2010,10,22,23,57,6.40
2010,10,22,23,58,6.40
2010,10,22,23,59,3.20
